Location: N�rnberg
(49.4471°N, 11.0632°E)
Time: 11:01:26
(UTC+01:00)

Envisat - Pass Details

Date: 19 February 2026
Orbit: 761 x 763 km, 98.4° (Epoch: 9 March)

Event Time Altitude Azimuth Distance (km) Brightness Sun altitude
Rises 03:59:17 0° 8° (N) 3,237 6.6 -32.5°
Reaches altitude 10° 04:01:45 10° 360° (N) 2,306 5.7 -32.2°
Enters shadow 04:02:40 15° 354° (N) 1,980 5.3 -32.0°
